Luke — WDC9569 — position and weather

sailwx.info

Track history (hours):
 
Tides and Currents Weather Stations Pressure Air Temp Water Temp Dewpoint Dewpoint Depression Visibility Wind Speed Wind Dir Waves Ship Positions

Luke

Owner: SO CAL SHIP SERVICES, INC, TERMINAL ISLAND, CA. More information available from US FCC via Universal Licensing System and Coast Guard Vessel Documentation Center.

Last reported at 2017-Sep-24 21:11 UTC. Time now 2017-Sep-26 21:53 UTC.
Position N 33°44' W 118°16'.

Type: Ship (hazmat cat B). MMSI: 367104040.

Date/timePositionNaut miles runAvg speedWind from/ knotsBaromVisibWave heightAir tempDewpointWater temp
2017-Sep-24 21:11N 33°44' W 118°16'1 4.1
2017-Sep-24 21:00N 33°43' W 118°16'0 0.5
2017-Sep-24 20:30N 33°43' W 118°16'  
2017-Sep-19 15:06N 33°44' W 118°16'0 0.0
2017-Sep-19 15:00N 33°44' W 118°16'611.9
2017-Sep-19 14:28N 33°44' W 118°09'612.2
2017-Sep-19 13:58N 33°40' W 118°03'4 8.3
2017-Sep-19 13:30N 33°43' W 118°06'5 9.0
2017-Sep-19 12:59N 33°44' W 118°11'4 8.5
2017-Sep-19 12:30N 33°44' W 118°16'0 0.0
2017-Sep-18 22:29N 33°44' W 118°16'0 0.8
2017-Sep-18 22:00N 33°44' W 118°17'0 0.7
2017-Sep-18 21:30N 33°44' W 118°16'3 5.3
2017-Sep-18 21:00N 33°44' W 118°13'0 0.2
2017-Sep-18 20:30N 33°44' W 118°13'0 0.1
2017-Sep-18 20:00N 33°44' W 118°13'0 0.2
2017-Sep-18 19:30N 33°44' W 118°13'0 0.1
2017-Sep-18 19:00N 33°44' W 118°13'2 4.6
2017-Sep-18 18:30N 33°43' W 118°16'1 2.0
2017-Sep-18 18:00N 33°44' W 118°16'0 0.0
2017-Sep-18 17:30N 33°44' W 118°16'0 0.0
2017-Sep-18 17:00N 33°44' W 118°16'0 0.0
2017-Sep-18 16:29N 33°44' W 118°16'0 0.0
2017-Sep-18 16:00N 33°44' W 118°16'  
Track history (hours):
 
Tides and Currents Weather Stations Pressure Air Temp Water Temp Dewpoint Dewpoint Depression Visibility Wind Speed Wind Dir Waves Ship Positions

Luke

Owner: SO CAL SHIP SERVICES, INC, TERMINAL ISLAND, CA. More information available from US FCC via Universal Licensing System and Coast Guard Vessel Documentation Center.

Last reported at 2017-Sep-24 21:11 UTC. Time now 2017-Sep-26 21:53 UTC.
Position N 33°44' W 118°16'.

Type: Ship (hazmat cat B). MMSI: 367104040.

Date/timePositionNaut miles runAvg speedWind from/ knotsBaromVisibWave heightAir tempDewpointWater temp
2017-Sep-24 21:11N 33°44' W 118°16'1 4.1
2017-Sep-24 21:00N 33°43' W 118°16'0 0.5
2017-Sep-24 20:30N 33°43' W 118°16'  
2017-Sep-19 15:06N 33°44' W 118°16'0 0.0
2017-Sep-19 15:00N 33°44' W 118°16'611.9
2017-Sep-19 14:28N 33°44' W 118°09'612.2
2017-Sep-19 13:58N 33°40' W 118°03'4 8.3
2017-Sep-19 13:30N 33°43' W 118°06'5 9.0
2017-Sep-19 12:59N 33°44' W 118°11'4 8.5
2017-Sep-19 12:30N 33°44' W 118°16'0 0.0
2017-Sep-18 22:29N 33°44' W 118°16'0 0.8
2017-Sep-18 22:00N 33°44' W 118°17'0 0.7
2017-Sep-18 21:30N 33°44' W 118°16'3 5.3
2017-Sep-18 21:00N 33°44' W 118°13'0 0.2
2017-Sep-18 20:30N 33°44' W 118°13'0 0.1
2017-Sep-18 20:00N 33°44' W 118°13'0 0.2
2017-Sep-18 19:30N 33°44' W 118°13'0 0.1
2017-Sep-18 19:00N 33°44' W 118°13'2 4.6
2017-Sep-18 18:30N 33°43' W 118°16'1 2.0
2017-Sep-18 18:00N 33°44' W 118°16'0 0.0
2017-Sep-18 17:30N 33°44' W 118°16'0 0.0
2017-Sep-18 17:00N 33°44' W 118°16'0 0.0
2017-Sep-18 16:29N 33°44' W 118°16'0 0.0
2017-Sep-18 16:00N 33°44' W 118°16'  

Dump ship's entire track history